www.pogodaiklimat.ru

Погода и климат >> Архив погоды >> Россия >> Свердловская область >> Екатеринбург


АРХИВ ПОГОДЫ в Екатеринбурге

Время (UTC), дата Ветер
(напр.,м/с)
 
Видим.   Явления Облачность Т
(С)
Тd
(С)
f
(%)
Тe
(С)
Тes
(С)
Комфортность P
(гПа)
Po
(гПа)
Тmin
(С)
Tmax
(С)
R
(мм)
R24
(мм)
S
(см)
18 11.12 СЗ 1 10 км 10/0
[Cc]
-14.8 -16.9 84 -17 -17 по сезону 1034.1 996.6
21 11.12 штиль 0 10 км слабый снег 10/0
[Ac As Cs]
-16.3 -18.4 84 -16 -16 по сезону 1035.2 997.4
00 12.12 ЮВ 1 10 км {снег} 10/0
[Cs]
-17.4 -19.7 82 -20 -20 прохладно 1035.7 997.7
03 12.12 ЮВ 1 10 км 6/0
[Ci fib]
-18.2 -20.6 81 -21 -21 прохладно 1036.3 998.2 -18.3 0.0 19
06 12.12 ЮВ 1 н/о н/о -17.8 -20.5 79 -21 -21 прохладно 1037.3 999.2 -18.6
09 12.12 ЮВ 1 4000 м дым {снег} ясно -15.0 -18.3 76 -18 -17 по сезону 1036.7 999.0
12 12.12 ЮВ 1 4000 м дым {снег} ясно -16.1 -18.5 82 -19 -19 прохладно 1037.9 1000.0
15 12.12 ЮВ 1 4000 м дымка ясно -17.1 -19.3 83 -20 -20 прохладно 1038.5 1000.5 -14.6 0.0
18 12.12 ЮВ 1 2000 м дымка ясно -18.1 -20.4 82 -21 -21 прохладно 1039.3 1001.1
21 12.12 ЮВ 1 2000 м дымка ясно -19.0 -21.4 81 -22 -22 холодно 1039.6 1001.3
00 13.12 ЮВ 1 2000 м дымка ясно -19.3 -21.8 81 -22 -22 холодно 1039.8 1001.4
03 13.12 ЮВ 1 2000 м дымка ясно -19.8 -22.4 80 -23 -23 холодно 1040.1 1001.6 -20.0 19
06 13.12 ЮВ 1 2000 м дымка ясно -19.1 -21.6 81 -22 -22 холодно 1040.2 1001.8 -20.2
09 13.12 ЮВ 2 4000 м дымка ясно -15.9 -19.2 76 -21 -21 прохладно 1039.3 1001.4
12 13.12 ЮВ 3 4000 м дымка {снег} ясно -17.0 -19.4 82 -24 -24 очень
холодно
1039.5 1001.4
15 13.12 ЮВ 2 4000 м дымка ясно -17.7 -20.1 81 -23 -23 холодно 1039.1 1001.0 -15.8 0.0
18 13.12 ЮВ 2 4000 м дымка ясно -17.7 -20.1 81 -23 -23 холодно 1038.3 1000.2
21 13.12 ЮВ 3 4000 м дымка ясно -17.7 -20.1 81 -25 -25 очень
холодно
1037.5 999.4
00 14.12 ЮВ 2 4000 м дымка ясно -17.5 -19.9 81 -23 -23 холодно 1037.1 999.1
03 14.12 ЮВ 3 4000 м дымка 10/0
[Cs]
-16.4 -18.8 82 -23 -23 холодно 1036.7 998.8 -17.9 19
06 14.12 ЮВ 2 4000 м 10/0
[Ac und Cs]
-15.3 -17.7 82 -20 -20 прохладно 1036.2 998.5
09 14.12 ЮВ 3 4000 м 10/0
[Ac und Cs]
-11.0 -13.8 80 -17 -17 по сезону 1035.0 997.9
12 14.12 Ю 3 4000 м дымка 10/0
[Ac trans Cs]
-8.8 -11.3 82 -15 -15 по сезону 1034.6 997.9
15 14.12 ЮВ 2 4000 м дымка 10/0
[Ac trans Cs]
-8.0 -10.3 83 -12 -12 по сезону 1034.7 998.1 -8.0
18 14.12 ЮВ 2 4000 м слабый снег 10/0
[Ac As]
-5.6 -8.0 83 -10 -10 по сезону 1034.5 998.2
21 14.12 Ю 2 4000 м слабый снег 10/0
[Ac As]
-3.1 -4.9 87 -7 -7 тепло 1034.6 998.7
00 15.12 Ю 3 10 км {снег} 10/0
[Ac As]
-2.3 -4.7 84 -7 -7 тепло 1034.9 999.1
03 15.12 Ю 2 10 км 10/0
[Ac trans Ci fib]
-2.9 -7.3 72 -7 -7 тепло 1035.9 999.9 -8.0 0.3 17
06 15.12 Ю 1 50 км 10/0
[Ac und Cc]
-4.4 -10.0 65 -6 -6 тепло 1037.0 1000.8
09 15.12 ЮЗ 2 50 км 10/0
[Cc]
-3.0 -10.5 56 -7 -6 тепло 1036.5 1000.5
12 15.12 Ю 3 10 км 10/0
[Cc]
-4.6 -12.2 55 -10 -10 по сезону 1037.0 1000.7
15 15.12 Ю 3 10 км 10/0
[Ci fib]
-5.5 -12.3 59 -11 -11 по сезону 1037.6 1001.2 -2.5
18 15.12 Ю 2 10 км 10/0
[Cc]
-6.9 -12.1 66 -11 -11 по сезону 1037.8 1001.2
21 15.12 Ю 2 н/о н/о -6.8 -13.0 61 -11 -11 по сезону 1037.9 1001.3
00 16.12 Ю 2 10 км 10/0
[Ci fib]
-7.0 -14.0 57 -11 -11 по сезону 1038.8 1002.1
03 16.12 ЮВ 1 10 км 10/0
[Ac As Cc]
-6.4 -14.3 53 -8 -8 тепло 1039.0 1002.4 -7.1 16
06 16.12 Ю 1 20 км 9/0
[Cs]
-5.4 -14.3 50 -7 -7 тепло 1039.0 1002.6
09 16.12 Ю 2 20 км 9/0
[Cs]
-2.5 -14.2 40 -6 -5 тепло 1038.6 1002.6
12 16.12 Ю 2 10 км 9/0
[Cs]
-5.6 -12.0 61 -10 -10 по сезону 1039.3 1002.9
15 16.12 Ю 1 10 км ясно -6.8 -14.1 56 -9 -9 тепло 1040.0 1003.4 -2.5
18 16.12 ЮВ 2 10 км ясно -7.7 -14.6 58 -12 -12 по сезону 1039.9 1003.2
21 16.12 ЮВ 1 10 км ясно -10.7 -14.8 72 -13 -13 по сезону 1040.4 1003.2
00 17.12 штиль 0 10 км ясно -11.2 -15.6 70 -11 -11 по сезону 1041.1 1003.7
03 17.12 ЮВ 1 10 км ясно -11.5 -17.9 59 -14 -14 по сезону 1040.9 1003.5 -12.5 15
06 17.12 Ю 1 20 км 9/0
[Cs]
-11.4 -17.9 59 -14 -13 по сезону 1041.2 1003.9 -14.4
09 17.12 ЮВ 1 20 км 6/0
[Cs]
-7.1 -16.5 47 -9 -8 тепло 1040.2 1003.5
12 17.12 ЮВ 2 10 км 3/0
[Cs]
-7.6 -15.7 52 -12 -12 по сезону 1040.1 1003.3
15 17.12 ЮВ 2 10 км ясно -10.9 -15.9 67 -15 -15 по сезону 1040.1 1002.9 -6.3
18 17.12 ЮВ 2 10 км ясно -12.3 -17.4 66 -17 -17 по сезону 1039.4 1002.0
21 17.12 ЮВ 2 10 км ясно -14.2 -18.3 71 -19 -19 по сезону 1039.3 1001.9
00 18.12 ЮВ 2 10 км ясно -14.8 -19.9 65 -20 -20 по сезону 1038.9 1001.2
03 18.12 ЮВ 2 10 км ясно -15.7 -20.0 69 -21 -21 прохладно 1039.3 1001.5 -15.8 14
06 18.12 Ю 1 20 км 4/0
[Ci ing]
-12.2 -20.5 50 -14 -14 по сезону 1038.7 1001.3
09 18.12 ЮЗ 3 20 км 4/0
[Ci ing]
-2.5 -18.1 29 -7 -6 тепло 1037.0 1001.0
12 18.12 Ю 2 10 км 8/0
[Ci fib]
-5.1 -19.6 31 -8 -8 тепло 1037.4 1001.1
15 18.12 Ю 2 10 км 8/0
[Ci fib]
-8.2 -19.6 39 -12 -12 по сезону 1038.3 1001.5 -1.4

 

Местоположение метеостанции Екатеринбург (Свердловская область, Россия): широта 56.83 долгота 60.63 высота над уровнем моря 281 м.

В архиве по умолчанию представлена погода в Екатеринбурге за последнюю неделю. Архивные данные за месяц целиком и за предыдущие месяцы, начиная с января 2011 года, Вы можете получить, выбрав интересующий диапазон дат из раскрывающегося списка и нажав кнопку "Ввод!".

Внимание! Время в таблицах - всемирное. Для получения местного времени необходимо прибавить поправку, которая в Екатеринбурге равна 5 ч.

Смотрите также архив погоды в соседних городах и на ближайших метеорологических станциях:

Погода в Верхнем Дуброво (Свердловская область, Россия) (29 км)
Погода в Сысерти (Свердловская область, Россия) (38 км)
Погода в Ревде (Свердловская область, Россия) (40 км)
Погода в Невьянске (Свердловская область, Россия) (78 км)
Погода в Верхнем Уфалее (Челябинская область, Россия) (86 км)
Погода в Каменск-Уральском (Свердловская область, Россия) (88 км)
Погода в Бисерти (Свердловская область, Россия) (95 км)
Погода в Артемовском (Свердловская область, Россия) (98 км)
Погода в Михайловске (Свердловская область, Россия) (105 км)
Погода в Нязепетровске (Челябинская область, Россия) (108 км)

Пояснения к столбцам:

Ветер - указаны скорость ветра в м/с - средняя за 10 мин, порывы в срок и между сроками (в фигурных скобках) и направление, откуда дует ветер: С - северный, СВ - северо-восточный, В - восточный, ЮВ - юго-восточный, Ю - южный, ЮЗ - юго-западный, З - западный, СЗ - северо-западный.
Видимость - горизонтальная дальность видимости в метрах или километрах. При видимости от 1 до 10 км при отсутствии осадков обычно наблюдается дымка, при ухудшении видимости до 1 км и менее - туман. В сухую погоду видимость может ухудшаться дымом, пылью или мглою.
Явления - указаны атмосферные явления, наблюдавшиеся в срок или в последний час перед сроком; фигурными скобками обозначены явления, наблюдавшиеся между сроками (за 1-3 часа до срока); квадратными скобками обозначены град или гололедные отложения с указанием их диаметра в мм.
Облачность - указаны через наклонную черту общая и нижняя облачность в баллах и высота нижней границы облаков в метрах; квадратными скобками обозначены формы облаков: Ci - перистые, Cs - перисто-слоистые, Cc - перисто-кучевые, Ac - высококучевые, As - высокослоистые, Sc - слоисто-кучевые, Ns - слоисто-дождевые, Cu - кучевые, Cb - кучево-дождевые. Подробнее классификацию облаков см. в Атласе облаков (PDF).
T - Температура воздуха - температура, измеренная на высоте 2 м над землей.
Td - Температура точки росы - температура, при понижении до которой содержащийся в воздухе водяной пар достигнет насыщения.
f - Относительная влажность воздуха - влажноcть воздуха, измеренная на высоте 2 м над землей.
Te - Эффективная температура - температура, которую ощущает одетый по сезону человек в тени. Характеристика душности погоды. При расчете учитывается влияние влажности воздуха и скорости ветра на теплоощущения человека.
Tes - Эффективная температура на солнце - температура, которую ощущает человек, с поправкой на солнечный нагрев. Характеристика знойности погоды. Зависит от высоты солнца над горизонтом, облачности и скорости ветра. Ночью, в пасмурную погоду, а также при ветре 12 м/с и более поправка равна нулю.
P - Атмосферное давление - приведенное к уровню моря атмосферное давление.
Po - Атмосферное давление - измеренное на уровне метеостанции атмосферное давление.
Tmin - Минимальная температура - минимум температуры воздуха на высоте 2 м над землей.
Tmax - Максимальная температура - максимум температуры воздуха на высоте 2 м над землей.
R - Количество осадков - Количество выпавших осадков за период времени, мм. При наведении курсора мыши на число - период времени, за который выпало указанное количество осадков.
R24 - Количество осадков - Количество выпавших осадков за 24 часа, мм.
S - Снежный покров - Высота снежного покрова, см. При наведении курсора мыши на число - состояние снежного покрова и степень покрытия местности в баллах.